Weather History for South Hill, VA

Change the Weather History Date:

Monday, January 7, 2013

  Actual Average (KEMV) Record (KEMV)
Temperature  
Mean Temperature 40 °F -  
Max Temperature 55 °F 52 °F 73 °F (2008)
Min Temperature 26 °F 31 °F 10 °F (1988)
Degree Days  
Heating Degree Days 24    
Moisture  
Dew Point 30 °F    
Average Humidity 75    
Maximum Humidity 100    
Minimum Humidity 41    
Precipitation  
Precipitation 0.00 in - - ()
Sea Level Pressure  
Sea Level Pressure 30.39 in    
Wind  
Wind Speed 1 mph (North)    
Max Wind Speed 8 mph    
Max Gust Speed -    
Visibility 10 miles    
Events      
Averages and records for this station are not official NWS values.
T = Trace of Precipitation, MM = Missing Value Source: NWS Daily Summary

Daily Weather History Graph

Daily Weather History Graph

Search for Another Location

Airport:

Trip Planner

Search our weather history database for the weather conditions in past years. The results will help you decide how hot, cold, wet, or windy it might be!

Date:

Astronomy

Jan. 07, 2013 Rise Set
Actual Time 7:25 AM EST 5:12 PM EST
Civil Twilight 6:56 AM EST 5:41 PM EST
Nautical Twilight 6:24 AM EST 6:13 PM EST
Astronomical Twilight 5:53 AM EST 6:44 PM EST
Moon 2:48 AM EST (1/7) 1:20 PM EST (1/7)
Length of Visible Light 10h 44m
Length of Day
9h 47m
Waning Crescent, 23% of the Moon is Illuminated
Jan 7
Waning Crescent
Jan 11
New
Jan 18
First Quarter
Jan 26
Full
Feb 3
Last Quarter

Hourly Weather History & Observations

Time (EST) Temp. Windchill Dew Point Humidity Pressure Visibility Wind Dir Wind Speed Gust Speed Precip Events Conditions
12:35 AM 37.4 °F - 30.2 °F 75% 30.22 in 10.0 mi Calm Calm - N/A   Scattered Clouds
12:55 AM 33.8 °F - 30.2 °F 87% 30.22 in 10.0 mi Calm Calm - N/A   Clear
1:35 AM 30.2 °F - 28.4 °F 93% 30.23 in 10.0 mi Calm Calm - N/A   Clear
1:55 AM 30.2 °F - 28.4 °F 93% 30.24 in 10.0 mi Calm Calm - N/A   Clear
2:15 AM 30.2 °F - 30.2 °F 100% 30.24 in 10.0 mi Calm Calm - N/A   Mostly Cloudy
2:35 AM 33.8 °F - 32.0 °F 93% 30.24 in 10.0 mi Calm Calm - N/A   Overcast
2:55 AM 33.8 °F - 32.0 °F 93% 30.25 in 10.0 mi Calm Calm - N/A   Overcast
3:15 AM 33.8 °F - 30.2 °F 87% 30.25 in 10.0 mi Calm Calm - N/A   Overcast
3:35 AM 32.0 °F - 30.2 °F 93% 30.26 in 10.0 mi Calm Calm - N/A   Mostly Cloudy
3:55 AM 33.8 °F - 30.2 °F 87% 30.25 in 10.0 mi Calm Calm - N/A   Scattered Clouds
4:15 AM 33.8 °F - 30.2 °F 87% 30.26 in 10.0 mi Calm Calm - N/A   Clear
4:35 AM 33.8 °F - 30.2 °F 87% 30.27 in 10.0 mi Calm Calm - N/A   Clear
4:55 AM 33.8 °F - 28.4 °F 81% 30.28 in 10.0 mi Calm Calm - N/A   Clear
5:15 AM 33.8 °F - 28.4 °F 81% 30.28 in 10.0 mi Calm Calm - N/A   Clear
5:55 AM 32.0 °F 28.7 °F 28.4 °F 87% 30.30 in 10.0 mi NW 3.5 mph - N/A   Clear
6:15 AM 32.0 °F - 28.4 °F 87% 30.32 in 10.0 mi Calm Calm - N/A   Clear
6:35 AM 32.0 °F - 28.4 °F 87% 30.34 in 10.0 mi Calm Calm - N/A   Clear
6:55 AM 32.0 °F 28.7 °F 28.4 °F 87% 30.35 in 10.0 mi NNW 3.5 mph - N/A   Clear
7:15 AM 32.0 °F 28.7 °F 28.4 °F 87% 30.36 in 10.0 mi North 3.5 mph - N/A   Clear
7:35 AM 32.0 °F 27.5 °F 28.4 °F 87% 30.38 in 10.0 mi North 4.6 mph - N/A   Clear
7:55 AM 32.0 °F 27.5 °F 28.4 °F 87% 30.39 in 10.0 mi NNW 4.6 mph - N/A   Clear
8:15 AM 33.8 °F 27.7 °F 30.2 °F 87% 30.41 in 10.0 mi North 6.9 mph - N/A   Clear
8:35 AM 37.4 °F 33.8 °F 33.8 °F 87% 30.42 in 10.0 mi North 4.6 mph - N/A   Clear
8:55 AM 42.8 °F 40.1 °F 33.8 °F 70% 30.43 in 10.0 mi NNW 4.6 mph - N/A   Clear
9:15 AM 44.6 °F 41.4 °F 32.0 °F 61% 30.44 in 10.0 mi North 5.8 mph - N/A   Clear
9:35 AM 46.4 °F - 33.8 °F 62% 30.45 in 10.0 mi Calm Calm - N/A   Clear
9:55 AM 46.4 °F 42.9 °F 32.0 °F 57% 30.45 in 10.0 mi North 6.9 mph - N/A   Clear
10:15 AM 46.4 °F 44.3 °F 33.8 °F 62% 30.47 in 10.0 mi NNE 4.6 mph - N/A   Clear
10:35 AM 48.2 °F - 32.0 °F 54% 30.47 in 10.0 mi NNE 6.9 mph - N/A   Clear
11:18 AM 48.2 °F - 32.0 °F 54% 30.46 in 10.0 mi North 8.1 mph - N/A   Clear
11:57 AM 51.8 °F - 32.0 °F 47% 30.45 in 10.0 mi NNE 4.6 mph - N/A   Clear
12:38 PM 51.8 °F - 30.2 °F 44% 30.44 in 10.0 mi NNE 3.5 mph - N/A   Clear
12:57 PM 53.6 °F - 30.2 °F 41% 30.44 in 10.0 mi North 3.5 mph - N/A   Clear
1:17 PM 53.6 °F - 32.0 °F 44% 30.44 in 10.0 mi North 5.8 mph - N/A   Clear
2:18 PM 55.4 °F - 32.0 °F 41% 30.43 in 10.0 mi Calm Calm - N/A   Clear
2:37 PM 55.4 °F - 32.0 °F 41% 30.43 in 10.0 mi Calm Calm - N/A   Clear
2:57 PM 53.6 °F - 30.2 °F 41% 30.43 in 10.0 mi North 5.8 mph - N/A   Clear
3:15 PM 53.6 °F - 30.2 °F 41% 30.43 in 10.0 mi Calm Calm - N/A   Clear
3:35 PM 53.6 °F - 30.2 °F 41% 30.44 in 10.0 mi Calm Calm - N/A   Clear
3:55 PM 55.4 °F - 32.0 °F 41% 30.45 in 10.0 mi Calm Calm - N/A   Clear
4:15 PM 53.6 °F - 30.2 °F 41% 30.45 in 10.0 mi Calm Calm - N/A   Clear
4:35 PM 51.8 °F - 30.2 °F 44% 30.46 in 10.0 mi Calm Calm - N/A   Clear
4:55 PM 50.0 °F - 30.2 °F 47% 30.46 in 10.0 mi Calm Calm - N/A   Clear
5:15 PM 42.8 °F - 30.2 °F 61% 30.46 in 10.0 mi Calm Calm - N/A   Clear
6:37 PM 33.8 °F - 30.2 °F 87% 30.48 in 10.0 mi Calm Calm - N/A   Clear
7:39 PM 30.2 °F - 30.2 °F 100% 30.48 in 10.0 mi Calm Calm - N/A   Clear
8:55 PM 28.4 °F - 28.4 °F 100% 30.49 in 10.0 mi Calm Calm - N/A   Clear
9:15 PM 28.4 °F - 28.4 °F 100% 30.48 in 10.0 mi Calm Calm - N/A   Clear
9:55 PM 28.4 °F - 28.4 °F 100% 30.48 in 10.0 mi Calm Calm - N/A   Clear
10:15 PM 26.6 °F - 26.6 °F 100% 30.48 in 10.0 mi Calm Calm - N/A   Clear
10:35 PM 26.6 °F - 26.6 °F 100% 30.48 in 10.0 mi Calm Calm - N/A   Clear
10:55 PM 26.6 °F - 26.6 °F 100% 30.48 in 10.0 mi Calm Calm - N/A   Clear
11:15 PM 26.6 °F - 26.6 °F 100% 30.48 in 10.0 mi Calm Calm - N/A   Clear
11:35 PM 26.6 °F 22.6 °F 26.6 °F 100% 30.47 in 10.0 mi SE 3.5 mph - N/A   Clear
11:55 PM 26.6 °F 22.6 °F 26.6 °F 100% 30.47 in 10.0 mi SE 3.5 mph - N/A   Clear